Regional Weather Roundup
Issued by NWS Cleveland, OH

Home | Current Version | Previous Version | Graphics & Text | Print | Product List | Glossary On
Versions: 1 2 3 4 5 6 7 8 9 10 11 12 13 14 15 16 17 18 19 20 21 22 23 24 25 26 27 28 29 30 31 32 33 34 35 36 37 38 39 40 41 42 43 44 45 46 47 48 49 50
328
ASUS41 KCLE 231902
RWRCLE
OHIO REGIONAL WEATHER ROUNDUP
NATIONAL WEATHER SERVICE CLEVELAND, OH
300 PM EDT SAT JUL 23 2016

NOTE: "FAIR" INDICATES FEW OR NO CLOUDS BELOW 12,000 FEET WITH NO
SIGNIFICANT WEATHER AND/OR OBSTRUCTIONS TO VISIBILITY.

OHZ001>008-015>018-024>027-034-035-043-044-232000-
   NORTHWEST OHIO

CITY           SKY/WX    TMP DP  RH WIND       PRES   REMARKS
DEFIANCE       SUNNY     90  66  45 VRB3      29.98F HX  92
FINDLAY        MOSUNNY   90  68  48 NW5       29.98F HX  94
TOLEDO EXPRESS SUNNY     92  67  43 NW5       29.97F HX  95
TOLEDO EXEC    MOSUNNY   92  68  45 CALM      29.97F HX  96
LIMA           MOSUNNY   89  72  56 MISG      30.00F HX  96
$$

OHZ009>014-019>023-028>033-038-089-232000-
   NORTHEAST OHIO

CITY           SKY/WX    TMP DP  RH WIND       PRES   REMARKS
CLE-HOPKINS    SUNNY     92  70  48 N10       30.00F HX  97
CLE-LAKEFRONT  SUNNY     84  74  71 NW7       29.98F HX  91
CUY CO. ARPT   MOSUNNY   88  73  62 NW14      30.01F HX  96
LORAIN-ELYRIA  SUNNY     89  73  59 N9        29.99F HX  97
ASHTABULA      SUNNY     87  71  58 NW9       30.00F HX  93
AKRON-CANTON   MOSUNNY   94  69  44 NW8       30.00F HX  99
WOOSTER        MOSUNNY   89  71  55 W8        30.00F HX  95
MANSFIELD      MOSUNNY   89  71  55 W9        30.02F HX  95
YOUNGSTOWN     MOSUNNY   91  61  36 NW12      30.00F HX  91
$$

OHZ042-051>053-060>062-070>072-077>081-232000-
  SOUTHWEST OHIO

CITY           SKY/WX    TMP DP  RH WIND       PRES   REMARKS
CINC-COVINGTON MOSUNNY   90  72  55 VRB5      30.02S HX  97
CINC-LUNKEN    MOSUNNY   89  74  60 S8        29.99F HX  98
HAMILTON       MOSUNNY   92  70  48 SW9       30.01F HX  97
DAYTON         PTSUNNY   88  72  58 VRB5      30.03F HX  94
WRIGHT-PAT AFB MOSUNNY   89  74  61 W8        30.01F HX  97
DAYTON GENERAL MOSUNNY   89  69  51 SW10      30.01F HX  93
WILMINGTON     MOSUNNY   90  72  55 W3        30.02F HX  97
$$

OHZ036-037-039>041-045>050-054>059-063>069-073>076-082>088-232000-
  CENTRAL AND SOUTHEAST OHIO

CITY           SKY/WX    TMP DP  RH WIND       PRES   REMARKS
COLUMBUS       PTSUNNY   88  70  55 SW8       29.99F HX  93
OSU AIRPORT    MOSUNNY   90  73  57 SW10      30.00F HX  98
BOLTON FIELD   MOSUNNY   90  73  58 W9        30.02S HX  98
RICKENBACK AFB MOSUNNY   89  72  56 W8        30.00S HX  96
NEWARK         MOSUNNY   90  72  55 SW9       30.00S HX  97
MARION         SUNNY     89  69  51 VRB7      30.01F HX  93
LANCASTER      MOSUNNY   89  74  60 W8        30.02R HX  98
ZANESVILLE     MOSUNNY   94  70  45 W9        30.00S HX 100
NEW PHILLY     MOSUNNY   95  67  39 NW9       29.99S HX  99
$$




USA.gov is the U.S. government's official web portal to all federal, state and local government web resources and services.